Regional Weather Roundup
Issued by NWS Sterling, VA

Home | Current Version | Previous Version | Text Only | Print | Product List | Glossary Off
Versions: 1 2 3 4 5 6 7 8 9 10 11 12 13 14 15 16 17 18 19 20 21 22 23 24 25 26 27 28 29 30 31 32 33 34 35 36 37 38 39 40 41 42 43 44 45 46 47 48 49 50

295
ASUS41 KLWX 050910
RWRLWX

REGIONAL WEATHER ROUNDUP
NATIONAL WEATHER SERVICE BALTIMORE MD/WASHINGTON DC
400 AM EST FRI FEB 05 2016

Note: "FAIR" indicates few or no clouds below 12,000 feet
with no significant weather and/or obstructions to visibility.
 TC=TEMPERATURE CELSIUS

 * =Non NWS site. Station does not report precipitation (e.g. rain,
    snow, etc.), thunder, or fog.

DCZ001-MDZ009-015-VAZ040>042-051-053>054-051000-
WASHINGTON METRO

CITY           SKY/WX    TMP DP  RH WIND       PRES   REMARKS
WASHINGTON NAT LGT SNOW  37  32  82 NW9       30.12R FOG
DULLES         CLOUDY    38  25  59 NW12      30.12R
ANDREWS AFB    LGT SNOW  34  32  93 NW13      30.09R FOG     WCI  25
FT BELVOIR     LGT RAIN  36  32  87 N10       30.11S WCI  28
QUANTICO       LGT RAIN  38  30  73 N13G29    30.12R
COLLEGE PARK*  CLOUDY    36  34  93 CALM      30.12R
LEESBURG*      CLOUDY    37  30  75 NW17G24   30.11F WCI  28
MANASSAS*      CLOUDY    37  28  70 N10G16    30.11F
GAITHERSBURG*  CLOUDY    37  23  56 NW8       30.14R

$$

MDZ006>007-011-014-051000-
BALTIMORE METRO

CITY           SKY/WX    TMP DP  RH WIND       PRES   REMARKS
BWI AIRPORT    LGT SNOW  34  33  96 NW5       30.11R FOG
MD SCIENCE CTR   N/A     36  33  89 MISG      30.10R
MARTIN STATE   LGT RAIN  36  34  93 NW7       30.12R
ANNAPOLIS      LGT SNOW  35  34  96 NW12      30.10R FOG     WCI  27
FORT MEADE*    CLOUDY    34  32  93 NW3       30.15R

$$

MDZ012-015-019>023-051000-
MARYLAND EASTERN SHORE

CITY           SKY/WX    TMP DP  RH WIND       PRES   REMARKS
OCEAN CITY     LGT RAIN  39  37  92 N16       29.95S
SALISBURY      LGT RAIN  38  36  92 NW20      29.98F WCI  28
BAY BRIDGE AP* LGT RAIN  34  34 100 NW13G20   30.10R WCI  25
CAMBRIDGE*     CLOUDY    32  32 100 NW13G20   30.05R WCI  22
EASTON*        LGT SNOW  34  34 100 N7        30.10R

$$

MDZ017>025-051000-
SOUTHERN MARYLAND

CITY           SKY/WX    TMP DP  RH WIND       PRES   REMARKS
PATUXENT RIVER FOG       33  31  92 NW20      30.06S VSB 1   WCI  21
ST INIGOES     LGT SNOW  34  32  92 NW10G17   30.05R FOG     WCI  26
LEONARDTOWN*   CLOUDY    32  32 100 NW7       30.09R

$$

MDZ003>005-051000-
NORTH CENTRAL MARYLAND

CITY           SKY/WX    TMP DP  RH WIND       PRES   REMARKS
FREDERICK*     CLOUDY    37  30  75 NW7       30.15R
HAGERSTOWN APT CLOUDY    36  26  67 NW17G24   30.11S WCI  26
WESTMINSTER*   CLOUDY    37  32  81 NW6       30.09R

$$

MDZ501>502-051000-
WESTERN MARYLAND

CITY           SKY/WX    TMP DP  RH WIND       PRES   REMARKS
OAKLAND*       CLOUDY    21  19  93 NW7       30.09R FOG
CUMBERLAND*    CLOUDY    34  23  64 NW3       30.22R

$$

VAZ025>031-051000-
SHENANDOAH VALLEY

CITY           SKY/WX    TMP DP  RH WIND       PRES   REMARKS
WINCHESTER*    CLOUDY    36  25  64 NW15G25   30.12R WCI  26
FRONT ROYAL*   CLOUDY    36  23  60 NW10G21   30.11F WCI  28
LURAY*         CLOUDY    34  25  69 N8        30.11S WCI  27
NEW MARKET*    CLOUDY    35  23  62 N7        30.12S
STAUNTON*      CLOUDY    38  23  54 N10G16    30.13R
WAYNESBORO*    CLOUDY    33  20  58 NW8G17    30.09R WCI  26

$$

WVZ021-048>050-054>055-051000-
EASTERN WEST VIRGINIA PANHANDLE

CITY           SKY/WX    TMP DP  RH WIND       PRES   REMARKS
MARTINSBURG    CLOUDY    36  23  59 NW15      30.12R WCI  27
PETERSBURG*    CLOUDY    33  19  55 CALM      30.19R

$$

VAZ036>039-050-051000-
CENTRAL FOOTHILLS

CITY           SKY/WX    TMP DP  RH WIND       PRES   REMARKS
CHARLOTTESVILL CLOUDY    36  32  85 CALM      30.10S
CULPEPER*      CLOUDY    37  26  63 N6        30.11F
ORANGE*        CLOUDY    34  34 100 CALM      30.11F
GORDONSVILLE*  CLOUDY    34  32  94 CALM      30.11R
WARRENTON*     CLOUDY    38  29  70 NW15G21   30.08F

$$

VAZ055>057-051000-
NORTH AND CENTRAL PIEDMONT

CITY           SKY/WX    TMP DP  RH WIND       PRES   REMARKS
FREDERICKSBRG* LGT RAIN  34  34  99 NW5       30.13R
STAFFORD*      FLURRIES  33  32  93 N8        30.15S WCI  27

$$

NCZ024-NYZ072-PAZ021-071-VAZ022-071-051000-
OTHER REGIONAL OBSERVATIONS

CITY           SKY/WX    TMP DP  RH WIND       PRES   REMARKS
NEW YORK CITY  LGT SNOW  34  31  88 VRB6G17   30.07S FOG
PHILADELPHIA   LGT SNOW  36  32  87 N9        30.08R FOG     WCI  29
PITTSBURGH     FLURRIES  27  19  72 NW10      30.23R WCI  17
ROANOKE        CLOUDY    35  19  52 NW13G28   30.14S WCI  26
RICHMOND       FLURRIES  35  33  92 N16G24    30.08R WCI  25
RALEIGH        CLOUDY    41  34  76 VRB7      30.06F

$$

ANZ530>537-051000-
MARINE OBSERVATIONS

STATION/POSITION TIME  TEMP    WIND        PRES
                       AIR SEA DIR/SP/G
                 (UTC) (F)     (DEG/KT/KT) (MB)
THOMAS PT LIGHT  NOT AVBL
BALT KEY BRIDGE  0800   36     320/ 11/ 13 1019.3R
COVE POINT       0800   34     360/ 24/ 30 1017.8F
LEWISETTA        0800   38 44  360/ 15/ 22 1017.2F
SOLOMONS ISLAND  0800   35 41  340/ 12/ 17   N/A

$$





USA.gov is the U.S. government's official web portal to all federal, state and local government web resources and services.